Weather Roundup
Issued by NWS Springfield, MO

Home | Current Version | Previous Version | Text Only | Print | Product List | Glossary On
Versions: 1 2 3 4 5 6 7 8 9 10 11 12 13 14 15 16 17 18 19 20 21 22 23 24 25 26 27 28 29 30 31 32 33 34 35 36 37 38 39 40 41 42 43 44 45 46 47 48 49 50
000
NZUS99 KSGF 272057
HRRSGF

HOURLY WEATHER
NATIONAL WEATHER SERVICE SPRINGFIELD MO
400 PM CDT THU JUL 27 2017

......SGF CWA......

CITY           SKY/WX    TMP DP  RH WIND       PRES   REMARKS
SPRINGFIELD    FAIR      86  73  65 SW8       29.94F HX  93
JOPLIN         FAIR      92  74  55 SW9       29.93F HX 101
WEST PLAINS    CLOUDY    81  73  76 W5        29.97F
ROLLA          CLOUDY    81  74  79 W9        29.94F
BRANSON        CLOUDY    81  73  78 CALM      29.98F

......SURROUNDING SGF CWA......

CITY           SKY/WX    TMP DP  RH WIND       PRES   REMARKS
CHANUTE        CLOUDY    89  75  63 N10       29.92F HX  99
PARSONS        PTSUNNY   90  72  55 VRB5      29.91F HX  97
COFFEYVILLE    FAIR      93  74  53 S7        29.90F HX 103
EMPORIA        CLOUDY    83  72  69 NE8       29.96F
HARRISON AR    PTSUNNY   85  74  69 S3        29.97F HX  92

......KANSAS AND MISSOURI......

CITY           SKY/WX    TMP DP  RH WIND       PRES   REMARKS
KANSAS CTY INT PTSUNNY   85  73  67 N12       29.96S HX  91
SEDALIA        CLOUDY    84  79  85 VRB6      29.94F HX  96
ST JOSEPH      FAIR      86  74  67 N8        29.96F HX  94
ST LOUIS       PTSUNNY   85  73  67 VRB6      29.89F HX  91
WICHITA        CLOUDY    85  75  72 N16       29.96S HX  93
TOPEKA         FAIR      86  75  69 N8        29.95F HX  95
OLATHE         FAIR      84  74  71 N7        29.95F HX  91

......TENNESSEE......

CITY           SKY/WX    TMP DP  RH WIND       PRES   REMARKS
MEMPHIS        NOT AVBL
NASHVILLE      PTSUNNY   92  71  50 SW8       29.93F HX  98

......ARKANSAS.......

CITY           SKY/WX    TMP DP  RH WIND       PRES   REMARKS
FAYETTEVILLE   FAIR      86  76  71 SW10      29.95F HX  96
FT SMITH       FAIR      93  75  55 SW5       29.90F HX 104
LITTLE ROCK    CLOUDY    93  77  59 SW10      29.92F HX 107

......OKLAHOMA.......

CITY           SKY/WX    TMP DP  RH WIND       PRES   REMARKS
TULSA          CLOUDY    90  71  53 SW9       29.89F HX  96
PONCA CITY     FAIR      91  73  55 VRB3      29.92F HX  99
MCALESTER      FAIR      97  76  50 S9        29.92F HX 110
OKLAHOMA CITY  PTSUNNY   96  64  34 SW8       29.92F HX  98

......IOWA............

CITY           SKY/WX    TMP DP  RH WIND       PRES   REMARKS
DES MOINES     NOT AVBL
QUAD CITIES    PTSUNNY   83  69  62 NE10G20   29.93F

......ILLINOIS........

CITY           SKY/WX    TMP DP  RH WIND       PRES   REMARKS
QUINCY         CLOUDY    84  72  67 N15       29.92S
CHICAGO        FAIR      80  60  50 NE21G26   29.94S




USA.gov is the U.S. government's official web portal to all federal, state and local government web resources and services.